P/2006 S6 ( Hill )

Japanese version
Home page
Updated on April 21, 2007

---------------------------------------------------------------------

* Profile

Discovery Date September 28, 2006
Magnitude 18.7 mag
Discoverer R. E. Hill (Catalina Sky Survey)

* Pictures

* Orbital Elements

The following orbital elements are taken from MPC 57948:

Epoch 2006 Nov. 1.0 TT = JDT 2454040.5
T 2006 Oct. 18.2574 TT                                  MPC
q   2.398306             (2000.0)            P               Q
n   0.1158357      Peri.   31.2465      +0.7646568      -0.6434354
a   4.167809       Node     9.0681      +0.5341850      +0.6016649
e   0.424564       Incl.   13.1770      +0.3604807      +0.4732760
P   8.51
From 111 observations 2006 Aug. 29-Oct. 30, mean residual 0".6.

* Finding Charts

* Magnitudes Graph

        m1 = 10.8 + 5 log d + 15.0 log r

---------------------------------------------------------------------

The orbital elements are published at the MPC Ephemerides and Orbital Elements.
The magnitudes graphs are made with Comet for Windows.

---------------------------------------------------------------------

Copyright(C) Seiichi Yoshida (comet@aerith.net). All rights reserved.